TimeCDT,TemperatureF,Dew PointF,Humidity,Sea Level PressureIn,VisibilityMPH,Wind Direction,Wind SpeedMPH,Gust SpeedMPH,PrecipitationIn,Events,Conditions,WindDirDegrees,DateUTC
12:35 AM,64.4,64.4,100,29.71,5.0,West,20.7,27.6,0.08,Rain,Light Rain,270,2013-04-11 05:35:00
12:55 AM,57.2,57.2,100,29.72,2.0,West,21.9,25.3,0.08,,Mostly Cloudy,280,2013-04-11 05:55:00
1:15 AM,53.6,53.6,100,29.74,10.0,West,21.9,27.6,N/A,,Overcast,270,2013-04-11 06:15:00
1:35 AM,53.6,53.6,100,29.72,10.0,West,18.4,21.9,N/A,,Overcast,280,2013-04-11 06:35:00
1:55 AM,51.8,50.0,94,29.71,10.0,West,19.6,24.2,N/A,,Overcast,280,2013-04-11 06:55:00
2:15 AM,51.8,50.0,94,29.72,10.0,West,16.1,-,N/A,,Overcast,270,2013-04-11 07:15:00
2:35 AM,50.0,50.0,100,29.73,7.0,West,13.8,19.6,N/A,,Overcast,270,2013-04-11 07:35:00
2:55 AM,50.0,50.0,100,29.73,5.0,West,13.8,-,N/A,,Overcast,280,2013-04-11 07:55:00
3:15 AM,50.0,48.2,94,29.73,10.0,West,13.8,-,N/A,,Overcast,280,2013-04-11 08:15:00
3:35 AM,50.0,48.2,94,29.73,10.0,West,13.8,-,N/A,,Overcast,280,2013-04-11 08:35:00
3:55 AM,50.0,48.2,94,29.74,10.0,West,11.5,-,N/A,,Overcast,280,2013-04-11 08:55:00
4:15 AM,50.0,46.4,87,29.74,10.0,West,11.5,-,N/A,,Overcast,280,2013-04-11 09:15:00
4:35 AM,48.2,46.4,93,29.73,10.0,WNW,12.7,16.1,N/A,,Overcast,290,2013-04-11 09:35:00
4:55 AM,48.2,44.6,87,29.72,10.0,WNW,9.2,-,N/A,,Overcast,300,2013-04-11 09:55:00
5:15 AM,48.2,44.6,87,29.71,10.0,WNW,9.2,-,N/A,,Overcast,300,2013-04-11 10:15:00
5:35 AM,48.2,44.6,87,29.75,10.0,West,11.5,-,N/A,,Overcast,270,2013-04-11 10:35:00
5:55 AM,46.4,44.6,93,29.75,10.0,WNW,12.7,17.3,N/A,,Overcast,290,2013-04-11 10:55:00
6:15 AM,46.4,42.8,87,29.75,10.0,WNW,17.3,20.7,N/A,,Overcast,300,2013-04-11 11:15:00
6:35 AM,46.4,42.8,87,29.75,10.0,WNW,17.3,21.9,N/A,,Overcast,290,2013-04-11 11:35:00
6:55 AM,46.4,42.8,87,29.76,10.0,WNW,12.7,-,N/A,,Overcast,290,2013-04-11 11:55:00
7:15 AM,46.4,44.6,93,29.76,10.0,West,10.4,-,N/A,,Overcast,270,2013-04-11 12:15:00
7:35 AM,46.4,42.8,87,29.76,10.0,WNW,10.4,-,N/A,,Overcast,290,2013-04-11 12:35:00
8:15 AM,46.4,44.6,93,29.79,10.0,West,11.5,-,N/A,,Overcast,260,2013-04-11 13:15:00
8:55 AM,46.4,42.8,87,29.77,10.0,West,8.1,-,N/A,,Overcast,280,2013-04-11 13:55:00
9:15 AM,46.4,42.8,87,29.78,10.0,West,8.1,-,N/A,,Overcast,260,2013-04-11 14:15:00
9:35 AM,46.4,42.8,87,29.78,10.0,West,8.1,-,N/A,,Unknown,280,2013-04-11 14:35:00
9:55 AM,46.4,42.8,87,29.78,10.0,West,13.8,-,N/A,,Unknown,270,2013-04-11 14:55:00
10:15 AM,46.4,41.0,81,29.78,10.0,West,11.5,-,N/A,,Unknown,280,2013-04-11 15:15:00
10:35 AM,46.4,41.0,81,29.79,10.0,West,9.2,-,N/A,,Unknown,280,2013-04-11 15:35:00
10:55 AM,46.4,41.0,81,29.80,10.0,West,13.8,-,N/A,,Unknown,270,2013-04-11 15:55:00
11:15 AM,46.4,41.0,81,29.78,10.0,West,5.8,-,N/A,,Unknown,260,2013-04-11 16:15:00
11:35 AM,46.4,41.0,81,29.79,10.0,West,10.4,-,N/A,,Mostly Cloudy,260,2013-04-11 16:35:00
11:55 AM,46.4,41.0,81,29.80,10.0,West,15.0,18.4,N/A,,Unknown,270,2013-04-11 16:55:00
12:15 PM,46.4,41.0,81,29.79,10.0,West,15.0,-,N/A,,Unknown,260,2013-04-11 17:15:00
12:35 PM,46.4,41.0,81,29.77,10.0,West,10.4,17.3,N/A,,Unknown,270,2013-04-11 17:35:00
12:55 PM,46.4,41.0,81,29.78,10.0,West,18.4,21.9,N/A,,Unknown,270,2013-04-11 17:55:00
1:15 PM,46.4,41.0,81,29.75,10.0,WNW,13.8,-,N/A,,Unknown,290,2013-04-11 18:15:00
1:35 PM,46.4,41.0,81,29.75,10.0,West,12.7,-,N/A,,Unknown,280,2013-04-11 18:35:00
1:55 PM,48.2,39.2,71,29.74,10.0,WNW,15.0,-,N/A,,Unknown,290,2013-04-11 18:55:00
2:15 PM,48.2,41.0,76,29.74,10.0,WNW,12.7,-,N/A,,Unknown,300,2013-04-11 19:15:00
2:35 PM,48.2,39.2,71,29.74,10.0,WNW,10.4,-,N/A,,Unknown,290,2013-04-11 19:35:00
2:55 PM,48.2,39.2,71,29.74,10.0,West,11.5,16.1,N/A,,Unknown,280,2013-04-11 19:55:00
3:15 PM,48.2,39.2,71,29.71,10.0,WNW,13.8,-,N/A,,Unknown,300,2013-04-11 20:15:00
3:35 PM,50.0,39.2,66,29.71,10.0,WNW,16.1,19.6,N/A,,Unknown,300,2013-04-11 20:35:00
3:55 PM,50.0,39.2,66,29.71,10.0,WNW,16.1,-,N/A,,Unknown,300,2013-04-11 20:55:00
4:15 PM,50.0,39.2,66,29.69,10.0,NW,13.8,20.7,N/A,,Unknown,320,2013-04-11 21:15:00
4:35 PM,51.8,39.2,62,29.71,10.0,WNW,12.7,-,N/A,,Unknown,290,2013-04-11 21:35:00
4:55 PM,53.6,39.2,58,29.72,10.0,West,13.8,18.4,N/A,,Clear,260,2013-04-11 21:55:00
5:15 PM,53.6,39.2,58,29.71,10.0,WNW,11.5,-,N/A,,Clear,290,2013-04-11 22:15:00
5:35 PM,53.6,37.4,54,29.71,10.0,WNW,9.2,-,N/A,,Clear,290,2013-04-11 22:35:00
5:55 PM,53.6,39.2,58,29.72,10.0,West,10.4,-,N/A,,Clear,260,2013-04-11 22:55:00
6:15 PM,53.6,37.4,54,29.71,10.0,WNW,10.4,-,N/A,,Clear,290,2013-04-11 23:15:00
6:35 PM,53.6,37.4,54,29.71,10.0,West,6.9,-,N/A,,Clear,280,2013-04-11 23:35:00
6:55 PM,53.6,37.4,54,29.72,10.0,WNW,9.2,-,N/A,,Clear,290,2013-04-11 23:55:00
7:15 PM,51.8,39.2,62,29.72,10.0,West,6.9,-,N/A,,Clear,270,2013-04-12 00:15:00
7:55 PM,50.0,39.2,66,29.74,10.0,West,11.5,-,N/A,,Clear,280,2013-04-12 00:55:00
8:15 PM,50.0,35.6,58,29.75,10.0,WNW,12.7,-,N/A,,Clear,290,2013-04-12 01:15:00
8:35 PM,50.0,35.6,58,29.76,10.0,WNW,11.5,-,N/A,,Clear,290,2013-04-12 01:35:00
8:55 PM,48.2,35.6,62,29.78,10.0,WNW,9.2,-,N/A,,Clear,300,2013-04-12 01:55:00
9:15 PM,48.2,37.4,66,29.78,10.0,WNW,8.1,-,N/A,,Clear,300,2013-04-12 02:15:00
9:35 PM,46.4,37.4,71,29.79,10.0,WNW,6.9,-,N/A,,Clear,300,2013-04-12 02:35:00
9:55 PM,46.4,37.4,71,29.80,10.0,NW,6.9,-,N/A,,Clear,310,2013-04-12 02:55:00
10:15 PM,46.4,35.6,66,29.80,10.0,NW,8.1,-,N/A,,Clear,320,2013-04-12 03:15:00
10:35 PM,46.4,35.6,66,29.81,10.0,NW,6.9,-,N/A,,Clear,310,2013-04-12 03:35:00
10:55 PM,46.4,35.6,66,29.82,10.0,NW,10.4,-,N/A,,Clear,310,2013-04-12 03:55:00
11:15 PM,46.4,33.8,62,29.81,10.0,NNW,8.1,-,N/A,,Clear,330,2013-04-12 04:15:00
11:35 PM,44.6,35.6,71,29.82,10.0,NW,6.9,-,N/A,,Clear,320,2013-04-12 04:35:00
11:55 PM,44.6,33.8,66,29.83,10.0,NW,4.6,-,N/A,,Clear,320,2013-04-12 04:55:00